Hillsdale, MI

10:59 PM EST on February 18, 2018 (GMT -0500)
Hillsdale Municipal

Weather History for KJYM - June, 2013

Change the Weather History Date:

Saturday, June 22, 2013

  Actual Average Record
Temperature  
Mean Temperature 78 °F -  
Max Temperature 86 °F 79 °F 98 °F (1988)
Min Temperature 70 °F 56 °F 36 °F (1992)
Cooling Degree Days 13    
Growing Degree Days 28 (Base 50)    
Moisture  
Dew Point 67 °F    
Average Humidity 70    
Maximum Humidity 84    
Minimum Humidity 57    
Precipitation  
Precipitation 0.00 in - - ()
Sea Level Pressure  
Sea Level Pressure 30.09 in    
Wind  
Wind Speed 4 mph (SW)    
Max Wind Speed 15 mph    
Max Gust Speed 20 mph    
Visibility 10 miles    
Events      
Averages and records for this station are not official NWS values.
T = Trace of Precipitation, MM = Missing Value Source: NWS Daily Summary

Daily Weather History Graph

Daily Weather History Graph

Search for Another Location

Airport or City:

Trip Planner

Search our weather history database for the weather conditions in past years. The results will help you decide how hot, cold, wet, or windy it might be!

Date:

Astronomy

Jun. 22, 2013 Rise Set
Actual Time 6:03 AM EDT 9:17 PM EDT
Civil Twilight 5:29 AM EDT 9:51 PM EDT
Nautical Twilight 4:44 AM EDT 10:36 PM EDT
Astronomical Twilight 3:51 AM EDT 11:29 PM EDT
Moon 8:30 PM EDT (6/22) 5:16 AM EDT (6/22)
Length of Visible Light 16h 22m
Length of Day
15h 13m
Waxing Gibbous, 99% of the Moon is Illuminated
Jun 22
Waxing Gibbous
Jun 23
Full
Jun 30
Last Quarter
Jul 8
New
Jul 15
First Quarter

Hourly Weather History & Observations

Time (EDT) Temp. Heat Index Dew Point Humidity Pressure Visibility Wind Dir Wind Speed Gust Speed Precip Events Conditions
12:15 AM 72.3 °F - 56.8 °F 58% 30.12 in 10.0 mi Calm Calm - N/A   Clear
12:35 AM 72.9 °F - 56.8 °F 57% 30.13 in 10.0 mi Calm Calm - N/A   Clear
12:54 AM 72.7 °F - 56.8 °F 57% 30.12 in 10.0 mi South 3.5 mph - N/A   Clear
1:15 AM 72.0 °F - 56.8 °F 59% 30.12 in 10.0 mi South 3.5 mph - N/A   Clear
1:35 AM 71.6 °F - 57.2 °F 60% 30.12 in 10.0 mi South 4.6 mph - N/A   Clear
1:54 AM 72.0 °F - 57.4 °F 60% 30.12 in 10.0 mi South 3.5 mph - N/A   Clear
2:15 AM 71.8 °F - 58.1 °F 62% 30.11 in 10.0 mi Calm Calm - N/A   Clear
2:35 AM 71.2 °F - 58.5 °F 64% 30.11 in 10.0 mi South 3.5 mph - N/A   Clear
2:54 AM 71.2 °F - 58.8 °F 65% 30.10 in 10.0 mi SSW 4.6 mph - N/A   Clear
3:15 AM 72.0 °F - 59.4 °F 64% 30.09 in 10.0 mi SSW 4.6 mph - N/A   Mostly Cloudy
3:35 AM 71.6 °F - 59.5 °F 66% 30.08 in 10.0 mi South 3.5 mph - N/A   Mostly Cloudy
3:54 AM 71.2 °F - 59.7 °F 67% 30.07 in 10.0 mi South 5.8 mph - N/A   Scattered Clouds
4:15 AM 70.3 °F - 60.1 °F 70% 30.08 in 10.0 mi South 4.6 mph - N/A   Clear
4:34 AM 71.2 °F - 60.4 °F 69% 30.08 in 10.0 mi South 4.6 mph - N/A   Mostly Cloudy
4:54 AM 71.4 °F - 60.4 °F 68% 30.07 in 10.0 mi South 5.8 mph - N/A   Overcast
5:15 AM 72.0 °F - 61.0 °F 68% 30.07 in 10.0 mi South 3.5 mph - N/A   Overcast
5:34 AM 72.0 °F - 61.3 °F 69% 30.08 in 10.0 mi South 4.6 mph - N/A   Mostly Cloudy
5:55 AM 71.8 °F - 61.5 °F 70% 30.07 in 10.0 mi South 5.8 mph - N/A   Clear
6:15 AM 71.6 °F - 61.9 °F 71% 30.08 in 10.0 mi South 5.8 mph - N/A   Clear
6:34 AM 71.4 °F - 62.4 °F 73% 30.09 in 10.0 mi South 5.8 mph - N/A   Clear
6:55 AM 72.0 °F - 63.1 °F 74% 30.09 in 10.0 mi SSW 5.8 mph - N/A   Clear
7:15 AM 72.0 °F - 63.3 °F 74% 30.09 in 10.0 mi South 6.9 mph - N/A   Scattered Clouds
7:34 AM 72.7 °F - 63.7 °F 73% 30.09 in 10.0 mi SSW 8.1 mph - N/A   Clear
7:55 AM 73.0 °F - 64.2 °F 74% 30.10 in 10.0 mi SSW 6.9 mph - N/A   Scattered Clouds
8:14 AM 73.8 °F - 65.7 °F 76% 30.11 in 10.0 mi SW 5.8 mph - N/A   Scattered Clouds
8:35 AM 74.3 °F - 66.6 °F 77% 30.11 in 10.0 mi SSW 5.8 mph - N/A   Scattered Clouds
8:55 AM 75.2 °F - 67.3 °F 76% 30.12 in 10.0 mi WSW 4.6 mph - N/A   Clear
9:14 AM 76.1 °F - 68.2 °F 76% 30.12 in 10.0 mi WSW 3.5 mph - N/A   Scattered Clouds
9:35 AM 77.7 °F - 69.1 °F 75% 30.12 in 10.0 mi WSW 5.8 mph - N/A   Mostly Cloudy
9:55 AM 79.2 °F - 69.4 °F 72% 30.12 in 10.0 mi WSW 8.1 mph - N/A   Scattered Clouds
10:14 AM 79.7 °F - 69.8 °F 72% 30.11 in 10.0 mi WSW 9.2 mph - N/A   Scattered Clouds
10:35 AM 80.4 °F 83.6 °F 70.0 °F 70% 30.11 in 10.0 mi West 8.1 mph - N/A   Clear
10:54 AM 81.5 °F 85.3 °F 70.3 °F 69% 30.11 in 10.0 mi West 10.4 mph - N/A   Clear
11:14 AM 82.8 °F 86.9 °F 70.5 °F 66% 30.10 in 10.0 mi West 9.2 mph - N/A   Clear
11:35 AM 81.7 °F 85.6 °F 70.5 °F 69% 30.12 in 10.0 mi West 10.4 mph - N/A   Clear
11:54 AM 81.5 °F 85.5 °F 70.7 °F 70% 30.13 in 10.0 mi West 11.5 mph - N/A   Scattered Clouds
12:15 PM 82.0 °F 86.3 °F 70.9 °F 69% 30.12 in 10.0 mi WNW 6.9 mph - N/A   Mostly Cloudy
12:34 PM 82.0 °F 86.5 °F 71.2 °F 70% 30.12 in 10.0 mi Calm Calm - N/A   Scattered Clouds
12:54 PM 82.4 °F 87.0 °F 71.4 °F 69% 30.11 in 10.0 mi Calm Calm - N/A   Scattered Clouds
1:15 PM 83.8 °F 89.2 °F 72.0 °F 67% 30.10 in 10.0 mi West 4.6 mph - N/A   Clear
1:34 PM 84.0 °F 89.3 °F 71.6 °F 66% 30.11 in 10.0 mi SW 6.9 mph - N/A   Clear
1:55 PM 84.6 °F 90.3 °F 72.0 °F 66% 30.10 in 10.0 mi SSW 5.8 mph - N/A   Scattered Clouds
2:15 PM 86.2 °F 92.6 °F 72.3 °F 63% 30.09 in 10.0 mi West 6.9 mph - N/A   Scattered Clouds
2:34 PM 86.4 °F 92.6 °F 72.1 °F 62% 30.09 in 10.0 mi SW 5.8 mph - N/A   Mostly Cloudy
2:55 PM 86.2 °F 92.2 °F 71.8 °F 62% 30.09 in 10.0 mi WSW 6.9 mph - N/A   Mostly Cloudy
3:15 PM 84.2 °F 90.3 °F 72.7 °F 68% 30.09 in 10.0 mi NW 6.9 mph - N/A   Mostly Cloudy
3:34 PM 85.6 °F 92.2 °F 72.7 °F 65% 30.08 in 10.0 mi NNW 6.9 mph - N/A   Scattered Clouds
3:55 PM 85.8 °F 92.6 °F 72.7 °F 65% 30.06 in 10.0 mi NW 11.5 mph - N/A   Scattered Clouds
4:14 PM 84.9 °F 90.7 °F 72.0 °F 65% 30.05 in 10.0 mi NNW 15.0 mph 19.6 mph N/A   Scattered Clouds
4:34 PM 82.9 °F 88.0 °F 72.0 °F 69% 30.04 in 10.0 mi NW 8.1 mph - N/A   Scattered Clouds
4:55 PM 82.8 °F 87.4 °F 71.2 °F 68% 30.04 in 10.0 mi WNW 4.6 mph - N/A   Clear
5:14 PM 82.2 °F 86.9 °F 71.4 °F 70% 30.06 in 10.0 mi Calm Calm - N/A   Clear
5:34 PM 80.6 °F 84.6 °F 71.8 °F 74% 30.05 in 10.0 mi South 8.1 mph - N/A   Scattered Clouds
5:55 PM 79.2 °F - 70.2 °F 74% 30.04 in 10.0 mi SSE 4.6 mph - N/A   Scattered Clouds
6:14 PM 78.3 °F - 69.3 °F 74% 30.06 in 10.0 mi South 3.5 mph - N/A   Clear
6:35 PM 78.3 °F - 68.9 °F 73% 30.05 in 10.0 mi Calm Calm - N/A   Clear
6:55 PM 78.8 °F - 68.5 °F 71% 30.04 in 10.0 mi Calm Calm - N/A   Clear
7:14 PM 80.2 °F 83.2 °F 69.4 °F 69% 30.05 in 10.0 mi Calm Calm - N/A   Clear
7:35 PM 80.8 °F 84.2 °F 70.3 °F 70% 30.04 in 10.0 mi Calm Calm - N/A   Clear
7:55 PM 81.1 °F 85.0 °F 70.9 °F 71% 30.05 in 10.0 mi Calm Calm - N/A   Clear
8:14 PM 81.9 °F 86.2 °F 71.2 °F 70% 30.05 in 10.0 mi Calm Calm - N/A   Clear
8:35 PM 81.1 °F 86.0 °F 72.9 °F 76% 30.05 in 10.0 mi South 3.5 mph - N/A   Clear
8:55 PM 81.0 °F 85.2 °F 72.1 °F 74% 30.06 in 10.0 mi SW 4.6 mph - N/A   Clear
9:14 PM 80.2 °F 84.3 °F 72.5 °F 77% 30.06 in 10.0 mi SSW 5.8 mph - N/A   Scattered Clouds
9:35 PM 79.3 °F - 73.4 °F 82% 30.06 in 10.0 mi SSW 4.6 mph - N/A   Clear
9:54 PM 79.0 °F - 73.8 °F 84% 30.07 in 10.0 mi SSW 5.8 mph - N/A   Clear
10:14 PM 78.4 °F - 73.2 °F 84% 30.09 in 10.0 mi SSW 4.6 mph - N/A   Clear
10:35 PM 78.3 °F - 72.9 °F 83% 30.09 in 10.0 mi SSW 3.5 mph - N/A   Clear
10:54 PM 77.5 °F - 70.9 °F 80% 30.09 in 10.0 mi SSW 5.8 mph - N/A   Clear
11:15 PM 77.4 °F - 68.0 °F 73% 30.09 in 10.0 mi SSW 4.6 mph - N/A   Clear
11:35 PM 76.5 °F - 67.8 °F 75% 30.09 in 10.0 mi SSW 5.8 mph - N/A   Clear
11:54 PM 75.7 °F - 68.0 °F 77% 30.09 in 10.0 mi SSW 6.9 mph - N/A   Clear